This demonstration page uses our WeatherBlox Daily Observations layout. Learn more.

41.55636, -103.73856

Hourly Observations for December 17, 2015

Temp ( °F °C ) Dew Point ( °F °C ) Humidity (%) Winds ( mph kmh ) Pressure ( in mb ) Visibility ( mi km ) Precip ( " mm )
12:53 am 00:53 Mostly Clear 7 -14 3 -16 85 85 NNE 6 9 30.24 1024 10 16.09344 0 0
1:53 am 01:53 Cloudy 7 -14 3 -16 85 85 WNW 6 9 30.27 1025 10 16.09344 0 0
2:53 am 02:53 Partly Cloudy 3 -16 1 -17 92 92 NW 6 9 30.33 1027 10 16.09344 0 0
3:18 am 03:18 Mostly Cloudy 3 -16 0 -18 85 85 NW 9 15 30.33 1027 10 16.09344 0 0
3:53 am 03:53 Cloudy 7 -14 3 -16 85 85 W 7 11 30.27 1025 10 16.09344 0 0
4:14 am 04:14 Cloudy with Light Snow 9 -13 3 -16 78 78 W 5 7 30.27 1025 1.75 2.816352 0 0
4:50 am 04:50 Cloudy with Light Snow 10 -12 7 -14 85 85 NW 3 6 30.27 1025 2 3.218688 0 0
4:53 am 04:53 Cloudy with Light Snow 10 -12 7 -14 85 85 NNW 5 7 30.27 1025 2 3.218688 0.01 0.254
5:04 am 05:04 Cloudy with Light Snow 10 -12 7 -14 85 85 NNW 6 9 30.27 1025 1.5 2.414016 0 0
5:27 am 05:27 Mostly Cloudy with Scattered Snow Showers 10 -12 9 -13 92 92 WNW 6 9 30.3 1026 1 1.609344 0.01 0.254
5:46 am 05:46 Mostly Cloudy with Scattered Snow Showers 12 -11 9 -13 85 85 NW 6 9 30.3 1026 0.75 1.207008 0.02 0.508
5:53 am 05:53 Mostly Cloudy with Scattered Snow Showers 12 -11 9 -13 85 85 NW 6 9 30.3 1026 1 1.609344 0.02 0.508
6:14 am 06:14 Mostly Cloudy with Scattered Snow Showers 12 -11 10 -12 92 92 WNW 7 11 30.33 1027 0.75 1.207008 0 0
6:22 am 06:22 Cloudy with Light Snow 14 -10 10 -12 85 85 WNW 8 13 30.3 1026 1.25 2.01168 0 0
6:44 am 06:44 Cloudy with Light Snow 16 -9 10 -12 79 79 WNW 10 17 30.3 1026 1.25 2.01168 0 0
6:53 am 06:53 Cloudy with Light Snow 16 -9 12 -11 86 86 WNW 9 15 30.3 1026 1.25 2.01168 0.03 0.762
7:28 am 07:28 Cloudy with Light Snow 16 -9 10 -12 79 79 WNW 10 17 30.33 1027 3 4.828032 0 0
7:53 am 07:53 Cloudy 16 -9 10 -12 79 79 WNW 12 19 30.33 1027 10 16.09344 0.001 0.001
8:53 am 08:53 Cloudy 18 -8 10 -12 73 73 WNW 9 15 30.36 1028 10 16.09344 0 0
9:53 am 09:53 Cloudy 18 -8 10 -12 73 73 WNW 14 22 30.39 1029 10 16.09344 0 0
10:53 am 10:53 Sunny 19 -7 9 -13 63 63 WNW 16 26 30.33 1027 10 16.09344 0 0
11:53 am 11:53 Sunny 19 -7 9 -13 63 63 WNW 15 24 30.33 1027 10 16.09344 0 0
12:53 pm 12:53 Sunny 19 -7 10 -12 68 68 W 12 19 30.3 1026 10 16.09344 0 0
1:53 pm 13:53 Sunny 19 -7 10 -12 68 68 W 10 17 30.3 1026 10 16.09344 0 0
2:53 pm 14:53 Sunny 19 -7 9 -13 63 63 W 7 11 30.3 1026 10 16.09344 0 0
3:53 pm 15:53 Sunny 18 -8 7 -14 62 62 W 5 7 30.27 1025 10 16.09344 0 0
4:53 pm 16:53 Clear 10 -12 3 -16 72 72 Calm 30.36 1028 10 16.09344 0 0
5:53 pm 17:53 Clear 1 -17 -4 -20 78 78 NNE 6 9 30.45 1031 7 11.265408 0 0
6:53 pm 18:53 Clear 1 -17 -2 -19 85 85 N 7 11 30.45 1031 9 14.484096 0 0
7:53 pm 19:53 Clear -2 -19 -6 -21 84 84 Calm 30.48 1032 10 16.09344 0 0
8:53 pm 20:53 Clear -6 -21 -9 -23 84 84 NE 5 7 30.48 1032 10 16.09344 0 0
9:53 pm 21:53 Clear -6 -21 -9 -23 84 84 Calm 30.48 1032 10 16.09344 0 0
10:53 pm 22:53 Clear -8 -22 -11 -24 84 84 NNW 5 7 30.5 1033 10 16.09344 0 0
11:53 pm 23:53 Clear -4 -20 -9 -23 77 77 N 3 6 30.42 1030 10 16.09344 0 0

Powered by AerisWeather